Miscellaneous Local Product
Issued by NWS Hastings, NE

Home | Current Version | Previous Version | Text Only | Print | Product List | Glossary On
Versions: 1 2 3 4 5 6 7 8 9 10 11 12 13 14 15 16 17 18 19 20 21 22 23 24 25 26 27 28 29 30 31 32 33 34 35 36 37 38 39 40 41 42 43 44 45 46 47 48 49 50
000
AXUS43 KGID 290802
MISGRI

GID CWA HOURLY WEATHER ROUNDUP
NATIONAL WEATHER SERVICE HASTINGS NE
300 AM CDT SUN MAY 29 2016

NOTE: "FAIR" INDICATES FEW OR NO CLOUDS BELOW 12,000 FEET WITH NO
SIGNIFICANT WEATHER AND/OR OBSTRUCTIONS TO VISIBILITY.

...SOUTH CENTRAL NEBRASKA...

CITY           SKY/WX    TMP DP  RH WIND       PRES   REMARKS
GRAND ISLAND   PTCLDY    60  57  89 CALM      30.02R
HASTINGS       MOCLDY    60  55  83 S3        30.02F
KEARNEY        CLOUDY    57  50  77 SW10      30.02S
ORD            CLEAR     56  54  93 N5        30.00S
YORK           CLOUDY    57  57 100 S6        30.01F
AURORA         CLOUDY    60  58  94 CALM      30.01F
LEXINGTON      PTCLDY    55  51  87 S3        30.03F
HOLDREGE       CLEAR     56  52  85 S5        30.04F
HEBRON         CLEAR     57  57  98 NW8       30.05R

...NEBRASKA PANHANDLE...

CITY           SKY/WX    TMP DP  RH WIND       PRES   REMARKS
CHADRON        PTCLDY    39  38  96 CALM      30.07S FOG
ALLIANCE       CLEAR     42  41  96 CALM      30.08S
SCOTTSBLUFF    MOCLDY    49  44  83 SE8       30.08F
SIDNEY         CLEAR     44  42  93 S7        30.11S

...WESTERN AND NORTH CENTRAL NEBRASKA...

CITY           SKY/WX    TMP DP  RH WIND       PRES   REMARKS
VALENTINE      CLEAR     53  49  86 SW8       30.04S
AINSWORTH      CLOUDY    57  55  91 NW6       30.04R
ONEILL         MOCLDY    60  57  88 CALM      30.00F
BROKEN BOW     PTCLDY    56  52  86 SW3       30.02R
IMPERIAL       CLEAR     54  51  90 CALM      30.07S
NORTH PLATTE   CLOUDY    51  49  92 NW3       30.06S
MCCOOK         CLOUDY    58  51  78 SE9       30.04F

...EASTERN NEBRASKA...

CITY           SKY/WX    TMP DP  RH WIND       PRES   REMARKS
NORFOLK        CLOUDY    54  52  93 CALM      30.00R
SO SIOUX CITY  CLEAR     56  54  93 CALM      29.96F
TEKAMAH        CLEAR     56  53  90 W7        29.98S
COLUMBUS       CLOUDY    55  48  76 CALM      30.01S
ALBION         CLOUDY    55  52  90 N5        30.01S
OMAHA EPPLEY   CLEAR     59  54  83 CALM      29.99S
MILLARD        CLEAR     57  55  95 CALM      30.00S
LINCOLN        CLEAR     59  56  89 CALM      30.02R
NEBRASKA CITY  CLEAR     60  58  91 CALM      30.01S
BEATRICE       CLEAR     59  56  92 CALM      30.02R
FALLS CITY     CLEAR     61  58  90 W3        30.01R

...NORTHERN KANSAS...

CITY           SKY/WX    TMP DP  RH WIND       PRES   REMARKS
GOODLAND       MOCLDY    56  50  80 S10       30.08F
HILL CITY      CLEAR     59  52  77 NW8       30.08R
NORTON         SUNNY     55  48  76 NE3       30.07R
PHILLIPSBURG   CLEAR     61  54  77 NE6       30.05S
SMITH CENTER   CLEAR     57  54  88 NE5       30.05F
BELOIT         CLEAR     57  55  94 CALM      30.02R
HAYS           CLEAR     57  48  72 SW3       30.05S
RUSSELL        CLEAR     60  56  86 S10       30.03R
CONCORDIA      CLEAR     63  54  72 S9        30.02S
SALINA         CLEAR     61  58  90 CALM      30.03S
TOPEKA           N/A     60  58  92 CALM      30.02S



USA.gov is the U.S. government's official web portal to all federal, state and local government web resources and services.